Boat Positions

These boat positions are presented for information purposes only.

If you have specific questions, please contact ACBL.

Boat positions of mainline ACBL boats.

Sort by:  Name  |  Location

  BT Name Location Date  
  07 A. CANNAVA OR 975N 12/7/2021 1:21:43 AM
  7T AL WEAVER IR 300N 12/7/2021 12:16:31 AM
  L70 ALIQUIPA OR 028S 12/6/2021 6:00:00 AM
  21 AM CENTURY LM 632S 12/7/2021 1:22:35 AM
  23 AM COURAGE WT 048N 12/7/2021 12:16:23 AM
  06 AM POWER LM 108N 12/7/2021 12:16:09 AM
  22 AM PROGRESS HC 392W 12/7/2021 1:26:43 AM
  26 AM RELIANCE TR 302S 12/7/2021 12:15:51 AM
  29 AM SKILL LM 107S 12/7/2021 1:19:34 AM
  2Q AM SPIRIT TT 364N 12/7/2021 1:21:07 AM
  28 AM STRONG WC 176E 12/7/2021 1:19:46 AM
  27 AM VALOR EC 009E 12/7/2021 1:18:38 AM
  3T AMER DREAM WT 002S 12/7/2021 1:24:51 AM
  20 AMER HERO LM 108N 12/7/2021 12:16:14 AM
  24 AMER LIFE LM 632S 12/7/2021 1:21:58 AM
  6Q AMER WAY HC 384E 12/7/2021 1:25:30 AM
  7X AMHERST OR 265S 12/7/2021 1:20:27 AM
  7L ANDY KOCH IR 239S 12/7/2021 1:17:00 AM
  04 AVE MARIA LM 081N 12/7/2021 1:19:28 AM
  8F B BENNINK OR 855S 12/7/2021 1:17:12 AM
  B6 BEARCAT TR 564S 12/6/2021 6:00:00 AM
  7A BILL BROWN OR 957S 12/7/2021 1:19:01 AM
  J70 BLACK BELT TR 132S 12/6/2021 6:00:00 AM
  1A BLESSED TRI WC 279W 12/7/2021 1:16:12 AM
  67 BOB STITH OR 976S 12/7/2021 12:16:28 AM
  F3 BRITNEY LEE UM 086N 12/6/2021 7:00:00 AM
  J4 BROTHER WIL LM 471.08S 12/6/2021 7:00:00 AM
  H4 BROWNWTR 11 WC 435E 12/6/2021 7:55:00 AM
  H5 BROWNWTR 7 WC 435E 12/6/2021 7:59:00 AM
  J1 BRUCE OAKLE AK 010S 12/6/2021 7:00:00 AM
  4G BRYCEMORGAN WC 130W 12/7/2021 1:12:37 AM
  E18 BTHOMPSON TR 106S 12/6/2021 6:00:00 AM
  5A BUCK LAY LM 565N 12/7/2021 12:16:26 AM
  85 C.T. JONES OR 710N 12/7/2021 1:20:49 AM
  77 CAIRO LM 838S 12/7/2021 1:20:07 AM
  6H CALI CHROME LM 155S 12/6/2021 4:06:00 AM
  55 CAPT C PAGE LM 652S 12/7/2021 12:16:05 AM
  73 CARL CANNON UM 177N 12/7/2021 1:20:04 AM
  25 CHI TRADER IR 300S 12/7/2021 12:16:31 AM
  J40 CITY OF LOU IR 162N 12/6/2021 7:00:00 AM
  A39 CITY OF PIT LM 821S 12/6/2021 7:00:00 AM
  3F CODY BOYD IR 300S 12/7/2021 1:17:15 AM
  52 CPT G SMITH LM 344N 12/7/2021 1:17:10 AM
  5R CPT S HOUSE LM 564N 12/7/2021 1:16:48 AM
  8T CPTCOLLINS UM 040N 12/7/2021 1:20:11 AM
  A1 CUMB HUNTER OR 937S 12/6/2021 6:00:00 AM
  4Y D FLEMING HC 384E 12/7/2021 12:16:19 AM
  02 D OCKMAN WC 124W 12/7/2021 1:17:08 AM
  E70 D WHITFORD OR 934S 12/6/2021 6:00:00 AM
  61 D. E. KNOY IR 281N 12/7/2021 12:16:18 AM
  5Q D. JAWORSKI LM 677S 12/7/2021 1:17:04 AM
  L71 DALE MANNS OR 006N 12/6/2021 6:00:00 AM
  F92 DANA K. LM 205S 12/6/2021 7:00:00 AM
  K63 DARREL L OR 033N 12/6/2021 6:00:00 AM
  L34 DAVID CHOAT AK 116S 12/6/2021 7:00:00 AM
  7F DAVID EVANS IR 111N 12/7/2021 1:17:08 AM
  E66 DAVID HILL TR 126N 12/6/2021 6:00:00 AM
  54 DAVID LEWIS LM 605S 12/7/2021 1:26:53 AM
  E65 DEB GRAHAM TR 256N 12/6/2021 6:00:00 AM
  7W DEL WILKINS LM 107S 12/7/2021 12:16:24 AM
  4U DODSON T PA 025N 12/7/2021 1:26:57 AM
  1E DONALD WOOD WC 140E 12/7/2021 1:21:08 AM
  K92 DOROTHY JAN AK 0.39S 12/6/2021 7:00:00 AM
  4F DOUG MURPHY WC 681S 12/7/2021 1:15:13 AM
  3E DOUG WRIGHT LM 237N 12/7/2021 1:23:15 AM
  8E DWAIN S. OR 539N 12/7/2021 1:23:26 AM
  1Q E.DUPRE WC 327W 12/6/2021 7:00:00 AM
  5I EMMANUEL WC 535E 12/7/2021 1:12:47 AM
  2G EMS EXPRESS HC 384W 12/7/2021 1:13:21 AM
  40 FORT DEFIAN PA 064S 12/7/2021 12:16:21 AM
  49 FT. MASSAC OR 976N 12/7/2021 12:16:18 AM
  6G G SHREVE LM 146N 12/7/2021 1:21:09 AM
  86 GARRON S OR 976N 12/7/2021 1:25:15 AM
  5N GETTELFINGE LM 886N 12/7/2021 1:25:25 AM
  3X GLEN H. OR 174S 12/7/2021 1:17:44 AM
  7E GLENN JONES UM 055N 12/7/2021 1:16:46 AM
  5Y GOOD SHEP WT 000S 12/7/2021 1:21:45 AM
  7G HAL PANNELL OR 979S 12/7/2021 12:16:23 AM
  51 HAROLD DODD LM 581N 12/7/2021 1:17:29 AM
  4B HOLY. CROSS HC 384W 12/7/2021 1:16:08 AM
  94 HOUSTON HNR HC 385W 12/7/2021 12:15:54 AM
  8U HR ZEISLOFT LM 159N 12/7/2021 12:16:19 AM
  A6 J H HUNTER CR 020N 12/6/2021 6:00:00 AM
  2L J TRETTER HC 385W 12/7/2021 12:16:00 AM
  7N J. HAMILTON LM 107S 12/7/2021 1:16:58 AM
  2U J. TOROK EC 010E 12/7/2021 1:24:36 AM
  4N JACK ODOM UM 063S 12/7/2021 12:16:03 AM
  H48 JACKSON 3 WT 118N 12/6/2021 7:00:00 AM
  50 JACKY ONEAL OR 978S 12/7/2021 1:19:27 AM
  3L JEFF KINDL PA 042S 12/7/2021 1:18:23 AM
  76 JEFFBOAT OR 976N 12/7/2021 1:16:50 AM
  J0 JOBETH JAN AK 372N 12/6/2021 7:00:00 AM
  2J JOE B. WARD WC 681W 12/7/2021 12:16:02 AM
  L35 JOHN JANOUS AK 448N 12/6/2021 7:00:00 AM
  7K JOHN NUGENT OR 950S 12/7/2021 1:24:29 AM
  53 KEITH DARLI LM 642S 12/7/2021 1:24:37 AM
  3Y KEN T SMITH PA 037N 12/7/2021 12:15:57 AM
  6X KENNY B. LM 176S 12/7/2021 1:16:55 AM
  7J KENNY EADS IR 078N 12/7/2021 1:17:32 AM
  59 L. STRAIN OR 976S 12/7/2021 12:16:07 AM
  7Y LAURA M WC 286W 12/7/2021 1:25:04 AM
  65 LG LUTGRING OR 976S 12/7/2021 1:14:15 AM
  A47 LUCY JANOUS AK 176N 12/6/2021 7:00:00 AM
  3A M DUPLANTIS LM 404N 12/7/2021 1:18:31 AM
  5C M G MORRIS LM 586N 12/7/2021 12:16:06 AM
  3S M PLANCHE SG 326S 12/7/2021 12:16:27 AM
  7V M SANDERS OR 601S 12/7/2021 1:19:26 AM
  87 M WEISEND OR 721S 12/7/2021 1:26:01 AM
  6E M.DOUGHERTY LM 154S 12/7/2021 1:22:30 AM
  L56 MARCI GALE OR 034N 12/6/2021 6:00:00 AM
  5L MARK KNOY LM 513N 12/7/2021 1:26:04 AM
  64 MARK STAAB UM 142N 12/7/2021 1:25:37 AM
  G27 MARNE B OR 028S 12/6/2021 6:00:00 AM
  3G MARTY P WC 344E 12/7/2021 1:26:05 AM
  2I MARY JONES OR 651N 12/7/2021 1:22:11 AM
  2H MIKE M. PA 002S 12/7/2021 1:19:28 AM
  69 MIKE N IR 287S 12/7/2021 1:18:23 AM
  K57 MISS ALEX AK 393.46S 12/6/2021 7:00:00 AM
  7R MISS BOBBIE LM 107N 12/7/2021 12:16:26 AM
  66 MISS JACKIE OR 210S 12/7/2021 1:26:55 AM
  L37 MS ASHLEY OR 031N 12/6/2021 6:00:00 AM
  7Q NC PARSONAG OR 877N 12/7/2021 12:16:10 AM
  2X NICK L. HC 394W 12/7/2021 1:19:20 AM
  80 PAUL BROTZG UM 015S 12/7/2021 1:17:20 AM
  7S PAUL TOBIN UM 203S 12/7/2021 12:16:03 AM
  84 POINDEXTER IR 119N 12/7/2021 1:19:47 AM
  5M R CHAMNESS LM 237N 12/7/2021 1:17:32 AM
  4A R HUGHES LM 705S 12/7/2021 1:17:34 AM
  5K R. CALLEGAN LM 238N 12/7/2021 1:20:18 AM
  9O R.J CHERAMI LM 100S 12/7/2021 1:10:36 AM
  10 RANDY A. UM 217N 12/7/2021 1:11:59 AM
  41 REX. DOBSON WC 289W 12/7/2021 1:15:30 AM
  74 ROBT.GREENE OR 096N 12/7/2021 1:25:42 AM
  5T RON HUNTER LM 424N 12/7/2021 1:16:31 AM
  70 RONALD L OR 976S 12/7/2021 12:16:07 AM
  11 S CHALLENGE LM 152S 12/7/2021 12:16:27 AM
  1M S JOURNEY LM 154S 12/7/2021 12:16:19 AM
  1P S LEGEND LM 154S 12/7/2021 12:16:22 AM
  1S S PRIORTY LM 108N 12/7/2021 12:16:21 AM
  1F S. FOREVER WT 048N 12/7/2021 12:16:26 AM
  3W S. HUNTER OR 070N 12/7/2021 1:18:30 AM
  1W S. RUNNER HC 385W 12/6/2021 3:27:46 PM
  L46 S.E FURLONG CR 005N 12/6/2021 6:00:00 AM
  71 S.R. WARDEN LM 067N 12/7/2021 1:26:04 AM
  1R SAFE PRIDE LM 150S 12/7/2021 12:16:18 AM
  1K SAFETY GLOR LM 155N 12/7/2021 12:16:27 AM
  1Y SAFETY STAR WT 000N 12/7/2021 12:16:24 AM
  2R SAFETY TEAM LM 107N 12/7/2021 12:16:23 AM
  1U SAFETYQUEST LM 150S 12/7/2021 12:16:30 AM
  1X SAFTYSPIRIT LM 152N 12/7/2021 12:16:27 AM
  96 SAVOUR PA 062S 12/7/2021 1:14:35 AM
  3P SEADRIFT HC 384W 12/7/2021 1:14:29 AM
  3R SHAWNEE FOR OR 976S 12/7/2021 12:16:19 AM
  72 SONNY IVEY LM 154N 12/7/2021 1:21:48 AM
  1Z ST. MARIE WC 286W 12/7/2021 1:12:00 AM
  3D ST. PADRE LM 145S 12/6/2021 4:08:00 AM
  30 SUE ELLEN HC 384E 12/7/2021 12:16:18 AM
  7C T ESPINOZA IR 300N 12/7/2021 12:16:14 AM
  18 T.BEHRINGER OR 934S 12/7/2021 1:18:16 AM
  L33 TAMELA LEIG AK 267.17S 12/6/2021 7:00:00 AM
  G40 TAYLOR MARI OR 030S 12/6/2021 6:00:00 AM
  44 TENNESSEE. OR 317N 12/7/2021 1:15:33 AM
  6B TEXAS TRANS HC 399W 12/7/2021 12:16:31 AM
  5H TIM S LM 366N 12/7/2021 1:16:11 AM
  89 TOM FRAZIER UM 410S 12/7/2021 1:17:07 AM
  5B W B KLUNK LM 513N 12/7/2021 12:16:15 AM
  E51 W W HINES CR 090S 12/6/2021 6:00:00 AM
  03 W. VIRGINIA OR 240N 12/7/2021 1:17:04 AM
  75 W.T.TOUTANT OR 397S 12/7/2021 1:17:51 AM
  A75 WASHNTON CR 016S 12/6/2021 6:00:00 AM
  E79 WM.NECKEL TR 005S 12/6/2021 6:00:00 AM
  58 WP LAGRANGE IR 073N 12/7/2021 1:19:45 AM